Back to catalog

IRIDIUM 122

AliveCommunicationsPO
NORAD 42957·PAYLOAD·🇺🇸 United States

Launched Oct 9, 2017 from Vandenberg Space Force Base

Loading…

Next Passes (next 24 hours)

TLE

FreshSource: CelesTrak SupGP

Epoch: Sep 14, 2026, 21:10 UTC

1 42957C 17061C   26257.88229167 -.00002263  00000+0 -80932-3 0  2573
2 42957  86.4027 347.7061 0002315  95.3160  43.8216 14.34219250    15

Track IRIDIUM 122 in real time with AllMySat

Download on the App Store